Cyclone, PA

2:48 AM EDT on August 25, 2016 (GMT -0400)
Bradford Regional

Weather History for KBFD - October, 2014

Change the Weather History Date:

Sunday, October 5, 2014

  Actual Average Record
Temperature  
Mean Temperature 41 °F 50 °F  
Max Temperature 47 °F 61 °F 81 °F (2007)
Min Temperature 35 °F 39 °F 24 °F (1958)
Degree Days  
Heating Degree Days 24 11  
Month to date heating degree days 61 52  
Since 1 July heating degree days 462 469  
Cooling Degree Days 0 0  
Month to date cooling degree days 0 0  
Year to date cooling degree days 195 192  
Moisture  
Dew Point 32 °F    
Average Humidity 70    
Maximum Humidity 82    
Minimum Humidity 58    
Precipitation  
Precipitation T in 0.13 in 0.99 in (1979)
Month to date precipitation 0.44 0.61  
Year to date precipitation 34.03 34.48  
Sea Level Pressure  
Sea Level Pressure 29.81 in    
Wind  
Wind Speed 8 mph (SW)    
Max Wind Speed 15 mph    
Max Gust Speed 25 mph    
Visibility 10 miles    
Events Rain    
T = Trace of Precipitation, MM = Missing Value Source: NWS Daily Summary

Daily Weather History Graph

Daily Weather History Graph

Search for Another Location

Airport or City:

Trip Planner

Search our weather history database for the weather conditions in past years. The results will help you decide how hot, cold, wet, or windy it might be!

Date:

Astronomy

Oct. 05, 2014 Rise Set
Actual Time 7:15 AM EDT 6:49 PM EDT
Civil Twilight 6:47 AM EDT 7:17 PM EDT
Nautical Twilight 6:15 AM EDT 7:49 PM EDT
Astronomical Twilight 5:43 AM EDT 8:21 PM EDT
Moon 5:08 PM EDT (10/5) 3:47 AM EDT (10/5)
Length of Visible Light 12h 29m
Length of Day
11h 33m
Waxing Gibbous, 89% of the Moon is Illuminated
Oct 5
Waxing Gibbous
Oct 8
Full
Oct 15
Last Quarter
Oct 23
New
Oct 30
First Quarter

Hourly Weather History & Observations

Time (EDT) Temp. Windchill Dew Point Humidity Pressure Visibility Wind Dir Wind Speed Gust Speed Precip Events Conditions
12:27 AM 34.0 °F 31.0 °F 28.9 °F 82% 29.70 in 10.0 mi Variable 3.5 mph - N/A   Mostly Cloudy
12:53 AM 35.1 °F 27.9 °F 28.9 °F 78% 29.73 in 10.0 mi SW 9.2 mph - N/A   Mostly Cloudy
1:53 AM 35.1 °F 27.9 °F 30.0 °F 82% 29.74 in 10.0 mi WSW 9.2 mph - N/A   Mostly Cloudy
2:53 AM 36.0 °F 29.0 °F 30.0 °F 79% 29.73 in 10.0 mi SW 9.2 mph - N/A   Overcast
3:06 AM 36.0 °F 31.1 °F 30.0 °F 79% 29.70 in 10.0 mi Variable 5.8 mph - N/A   Overcast
3:53 AM 36.0 °F 28.5 °F 30.9 °F 82% 29.73 in 10.0 mi SW 10.4 mph 18.4 mph N/A   Overcast
4:53 AM 37.0 °F 33.3 °F 30.9 °F 79% 29.75 in 10.0 mi SW 4.6 mph - N/A   Overcast
5:53 AM 37.0 °F 31.6 °F 32.0 °F 82% 29.75 in 10.0 mi Variable 6.9 mph - N/A   Overcast
6:53 AM 37.0 °F 31.6 °F 33.1 °F 86% 29.76 in 10.0 mi SW 6.9 mph - 0.00 in Rain Light Rain
7:13 AM 37.9 °F 31.5 °F 34.0 °F 86% 29.74 in 10.0 mi SW 9.2 mph - 0.00 in   Overcast
7:45 AM 37.9 °F 32.7 °F 34.0 °F 86% 29.75 in 10.0 mi SW 6.9 mph - 0.00 in   Overcast
7:53 AM 37.9 °F 32.7 °F 34.0 °F 86% 29.79 in 10.0 mi Variable 6.9 mph - 0.00 in   Overcast
8:53 AM 39.9 °F 33.4 °F 33.1 °F 77% 29.81 in 10.0 mi SW 10.4 mph 17.3 mph N/A   Overcast
9:10 AM 39.9 °F 33.9 °F 33.1 °F 77% 29.78 in 10.0 mi WSW 9.2 mph 18.4 mph N/A   Overcast
9:22 AM 39.9 °F 35.8 °F 33.1 °F 77% 29.79 in 10.0 mi WSW 5.8 mph - N/A   Overcast
9:53 AM 39.0 °F 31.8 °F 33.1 °F 79% 29.83 in 10.0 mi SW 11.5 mph 20.7 mph N/A   Overcast
10:43 AM 42.1 °F 37.1 °F 34.0 °F 73% 29.80 in 10.0 mi SSW 8.1 mph 23.0 mph N/A   Overcast
10:53 AM 42.1 °F 36.1 °F 33.1 °F 70% 29.84 in 10.0 mi WSW 10.4 mph 19.6 mph N/A   Mostly Cloudy
11:53 AM 44.1 °F 40.8 °F 33.1 °F 65% 29.84 in 10.0 mi Variable 5.8 mph 18.4 mph N/A   Mostly Cloudy
12:39 PM 46.9 °F - 33.1 °F 59% 29.81 in 10.0 mi SSW 12.7 mph 19.6 mph N/A   Overcast
12:53 PM 46.0 °F 40.6 °F 32.0 °F 58% 29.83 in 10.0 mi SW 11.5 mph 18.4 mph N/A   Mostly Cloudy
1:53 PM 45.0 °F 39.3 °F 30.9 °F 58% 29.83 in 10.0 mi SW 11.5 mph 19.6 mph N/A   Overcast
2:53 PM 45.0 °F 38.2 °F 32.0 °F 60% 29.83 in 10.0 mi SSW 15.0 mph 19.6 mph N/A   Overcast
3:40 PM 44.1 °F 40.1 °F 30.9 °F 60% 29.81 in 10.0 mi Variable 6.9 mph - N/A   Overcast
3:51 PM 44.6 °F 39.2 °F 32.0 °F 61% 29.81 in 10.0 mi SW 10.4 mph 17.3 mph N/A   Overcast
3:53 PM 45.0 °F 40.1 °F 32.0 °F 60% 29.84 in 10.0 mi WSW 9.2 mph 17.3 mph N/A   Overcast
4:53 PM 44.1 °F 39.0 °F 30.9 °F 60% 29.85 in 10.0 mi SW 9.2 mph 18.4 mph N/A   Overcast
5:53 PM 44.1 °F 40.8 °F 30.9 °F 60% 29.86 in 10.0 mi SSW 5.8 mph - N/A   Overcast
6:53 PM 43.0 °F 40.3 °F 30.0 °F 60% 29.87 in 10.0 mi SSW 4.6 mph - N/A   Mostly Cloudy
7:53 PM 39.9 °F 37.8 °F 30.0 °F 68% 29.89 in 10.0 mi South 3.5 mph - N/A   Mostly Cloudy
8:53 PM 39.0 °F 35.7 °F 30.9 °F 73% 29.90 in 10.0 mi SE 4.6 mph - N/A   Overcast
9:53 PM 39.9 °F 36.7 °F 32.0 °F 73% 29.91 in 10.0 mi SSE 4.6 mph - N/A   Overcast
10:53 PM 41.0 °F 37.1 °F 30.9 °F 67% 29.91 in 10.0 mi SSE 5.8 mph - N/A   Overcast
11:53 PM 39.0 °F 34.0 °F 30.9 °F 73% 29.91 in 10.0 mi SSE 6.9 mph - N/A   Scattered Clouds